Content
SEND FEEDBACK

Daily
Averages
Monthly
Summary
United States of America

MAYO, FLORIDA


Home > North America > United States > Florida
Elevation: 75 feet     Latitude: 30 03N     Longitude: 083 10W

WEATHER
 
SELECT A DAY
Number of Records: 178,706;   Date Range: 2/27/98 - 11/25/14
 
SHARE

PRINT THIS DATA

[ ← Previous Day ]
WEATHER ALMANAC - JANUARY 3, 2013
[ Next Day → ]
[ °C ]   °F
Weather ElementAverageHighLow
Temperature52.6 °F57.9 °F (1:53 am)48 °F (4:53 pm)
Dewpoint47.6 °F53.1 °F (1:53 am)44.1 °F (10:53 am)
Humidity83.3 %93 % (5:53 pm)64 % (10:53 am)
Barometer30.17 in30.27 in (11:53 pm)30.07 in (2:53 am)
Wind Speed6.3 mph10.4 mph (9:53 am)
Weather ElementAverage
Wind DirectionSSE (166.1 °)

Weather ElementTotal
Precipitation0.32 in
Heating Degree Days12.1 (Base 65)
Growing Degree Days3 (Base 50)
Averaged from 23 records on January 3, 2013
WEATHER CONDITIONS BREAKOUT
WIND DIRECTION BREAKOUT
WEATHER BY HOUR - JANUARY 3, 2013
[ °C ]   °F
Local TimeTemperatureDewpointHumidityBarometerVisibilityWind DirectionWind SpeedGust SpeedPrecipitationEventsConditions
1:53 AM57.9 °F53.1 °F84 %30.08 inNorth (10°)3.5 mph
2:53 AM57.0 °F52.0 °F83 %30.07 inNE (40°)3.5 mph
3:53 AM55.9 °F52.0 °F87 %30.08 inCalm
4:53 AM57.0 °F52.0 °F83 %30.09 inNorth (360°)6.9 mph
5:53 AM57.0 °F51.1 °F81 %30.12 inNorth (360°)9.2 mph
6:53 AM57.0 °F48.9 °F74 %30.11 inNorth (360°)8.1 mph
7:53 AM57.0 °F48.0 °F72 %30.11 inNNE (30°)8.1 mph
8:53 AM55.9 °F46.9 °F72 %30.17 inNorth (350°)9.2 mph
9:53 AM55.9 °F46.0 °F69 %30.19 inNorth (350°)10.4 mph
10:53 AM55.9 °F44.1 °F64 %30.19 inNorth (360°)8.1 mph
11:53 AM51.1 °F46.9 °F86 %30.19 inNorth (10°)8.1 mph0.07 in
12:53 PM51.1 °F48.0 °F89 %30.16 inNNE (30°)4.6 mph0.09 in
1:53 PM51.1 °F48.0 °F89 %30.15 inNNE (30°)5.8 mph0.04 in
2:53 PM50.0 °F46.9 °F89 %30.17 inNorth (360°)8.1 mph0.02 in
3:53 PM50.0 °F46.0 °F86 %30.17 inNNE (20°)8.1 mph0.03 in
4:53 PM48.0 °F44.1 °F86 %30.19 inNNE (20°)9.2 mph0.05 in
5:53 PM48.0 °F46.0 °F93 %30.21 inNorth (360°)6.9 mph
6:53 PM48.9 °F46.0 °F90 %30.22 inNNE (30°)3.5 mph
7:53 PM48.9 °F46.0 °F90 %30.24 inCalm
8:53 PM50.0 °F46.9 °F89 %30.25 inNorth (360°)5.8 mph0.02 in
9:53 PM50.0 °F46.0 °F86 %30.25 inNorth (360°)6.9 mph
10:53 PM48.9 °F45.0 °F86 %30.25 inNorth (10°)6.9 mph
11:53 PM48.0 °F45.0 °F89 %30.27 inNorth (10°)4.6 mph
Hourly data recorded from K40J, located miles away from Mayo, Florida







STORIES FROM OUR PARTNERS